Location: ???????????
(55.5758°N, 38.4970°E)
Time: 18:08:08
(UTC+00:00)

In-Cosmos 22 Rocket - Pass Details

Date: 15 November 2025
Orbit: 788 x 886 km, 81.2° (Epoch: 14 December)

Event Time Altitude Azimuth Distance (km) Brightness Sun altitude
Rises 02:43:06 0° 188° (S) 3,482 7.4 -19.0°
Reaches altitude 10° 02:45:32 10° 188° (S) 2,547 6.7 -18.7°
Maximum altitude 02:51:21 81° 102° (ESE) 901 4.4 -17.9°
Drops below altitude 10° 02:57:09 10° 16° (NNE) 2,536 6.8 -17.1°
Sets 02:59:35 0° 16° (NNE) 3,467 7.5 -16.7°
